Simultaneous Nadir Overpasses (SNOs) Predictions

Prediction of SNOs between AQUA and GOES-15 Satellite Orbit:

Table of predicted SNOs for the next 14.0 days since TLE Epoch: 10/5/2012
Index Date Time (AQUA) AQUA Lat,Lon GOES-15 Lat,Lon Distance(km) Time Diff (sec)
1 10/06/2012 10:37:41 0.26,-135.58 0.23,-135.43 18.04 80
2 10/08/2012 10:25:32 -0.39,-132.64 0.23,-135.42 317.07 80
3 10/08/2012 22:46:57 -0.69,-137.84 -0.20,-135.39 278.30 80
4 10/10/2012 22:34:47 -0.07,-134.89 -0.20,-135.38 56.50 80
5 10/12/2012 22:22:36 0.52,-131.93 -0.20,-135.37 390.92 80
6 10/13/2012 10:43:51 0.56,-137.09 0.18,-135.41 192.22 80
7 10/15/2012 10:31:41 -0.05,-134.13 0.18,-135.39 141.53 80
8 10/15/2012 22:53:05 -1.01,-139.34 -0.15,-135.33 454.99 80
9 10/17/2012 10:19:30 -0.69,-131.18 0.19,-135.36 474.46 80
10 10/17/2012 22:40:54 -0.37,-136.38 -0.16,-135.30 122.15 80




NCC Satellite Simultaneous Nadir Overpasses (SNOs) Prediction Service
